NOAA 16 DEB, 42366

Orbit data source: Space-Track

NOAA 16 DEB, 42366 is space debris in SSO originally from a launch on Thu, 21 Sep 2000 UTC launched from the Air Force Western Test Range (AFWTR). Debris objects in space refer to the collection of defunct objects orbiting the Earth. Examples of debris include non-operational satellites, rocket bodies, and fragments generated from explosions, collisions, or faulty payload assembly.

Loading next visibility...
NOAA 16 DEB details
Identifier
42366, 2000-055RJ
Orbit
SSO
Last TLE update16 hours ago
Origin
Flag of USNOAA (US)
ManufacturerUnknown
MissionSpacecraft
Bus & MotorUnknown
MassUnknown
Launch date (UTC)
2000-09-21 (24 years ago)
Launch vehicleUnknown
Launch site
Air Force Western Test Range (AFWTR)
Object type
Payload
Rocket body
Debris
Shape & HBRUnknown
Radar Cross SectionSmall (<0.1 m²)

Expand to show TLE details & history

TLE from 16 hours ago
0 NOAA 16 DEB
1 42366U 00055RJ  24360.86457095  .00042041  00000-0  71317-2 0  9992
2 42366  98.8923 214.6361 0042053  63.3407 297.2093 14.68453857464762
Epoch: 2024-12-25T20:44Z
Definitive object data (Epoch: 2024-12-25T20:44:58.93Z)
Latitude0.00001°
Longitude168.53836°
Altitude655.534 km
Speed7.537 km/s
True Right ascension14h 18m 32s
True Declination0° 00' 00"
Sunlit
Object was in daylight at TLE epoch
Visualization TLE readout
Latitude31.39426°
Longitude163.8358°
Altitude644.034 km
Speed7.553 km/s
Apparent Right ascension17h 22m 58s
Apparent Declination-10° 52' 38"
Sunlit
Object is in daylight
Visualization observer readout
Local Sidereal Time12:36:22
Azimuth110.211° ESE
Elevation6.665°
Doppler factor1
Orbital elements
Apogee altitude692.722 km
Perigee altitude633.501 km
Semi-major axis7,041.248 km
Eccentricity0.0042053
Inclination98.8923°
RAAN214.6361°
Arg. of periapsis63.3407°
True anomaly296.7797°
Mean anomaly297.2093°
Eccentric anomaly296.99461°
Mean motion3.6734 °/min
BSTAR0.0071317
Orbital period98 mins
Loading maneuver chart data...
Loading historical data...
Loading historical data...
Loading historical data...
Loading historical data...
Loading historical data...
Loading historical data...
Loading historical data...

NOAA 16 DEB Visibility forecast

Observer location: undefined°, undefined

Span
Click to sort rows by Start time (UTC) header in descending order
Start Az.
Max El. time (UTC)
Max El. Az.
Max El.
End time (UTC)
End Az.
4 mins2024-12-26 13:16:43.919Z89.251° E2024-12-26 13:18:43.919Z57.963° ENE15.35°2024-12-26 13:20:43.919Z29.458° NE
7 mins2024-12-26 14:51:43.919Z190.332° SSW2024-12-26 14:54:43.919Z250.587° W35.888°2024-12-26 14:58:43.919Z331.99° NNW
6 mins2024-12-27 02:46:43.919Z47.326° ENE2024-12-27 02:49:43.919Z111.48° ESE27.48°2024-12-27 02:52:43.919Z158.116° S
5 mins2024-12-27 04:23:43.919Z332.959° NNW2024-12-27 04:25:43.919Z298.777° NW21.652°2024-12-27 04:28:43.919Z248.534° W
|